Miscellaneous Local Product
Issued by NWS North Platte, NE

Home | Current Version | Previous Version | Graphics & Text | Print | Product List | Glossary On
Versions: 1 2 3 4 5 6 7 8 9 10 11 12 13 14 15 16 17 18 19 20 21 22 23 24 25 26 27 28 29 30 31 32 33 34 35 36 37 38 39 40 41 42 43 44 45 46 47 48 49 50
684
AXUS43 KLBF 241210
MISLBF


WESTERN AND NORTH CENTRAL NEBRASKA HOURLY WEATHER ROUNDUP
NATIONAL WEATHER SERVICE NORTH PLATTE NE
700 AM CDT SUN JUL 24 2016

NOTE: "FAIR" INDICATES FEW OR NO CLOUDS BELOW 12,000 FEET WITH NO
SIGNIFICANT WEATHER AND/OR OBSTRUCTIONS TO VISIBILITY.

NOTE: STATIONS NOT REPORTING VARIABLES SUCH AS SKY/WEATHER OR
PRESSURE ARE PROVIDED BY RAWS AND APRS NETWORKS AND ARE NOT UNDER
NATIONAL WEATHER SERVICE QUALITY CONTROL.

...OBSERVATIONS IN AND NEAR THE EASTERN PANHANDLE OF NEBRASKA...

CITY           SKY/WX    TMP DP  RH WIND       PRES   REMARKS
PINE RIDGE     CLOUDY    57  53  86 E6        30.09R
CHADRON        PTCLDY    59  47  64 NE5       30.08R
ALLIANCE       CLOUDY    57  55  93 CALM      30.08R
SIDNEY         CLOUDY    63  55  75 CALM      30.17R
CRESCENT LAKE    N/A     62  56  82 CALM        N/A
$$

...OBSERVATIONS IN NORTHERN NEBRASKA AND FAR SOUTHERN SOUTH DAKOTA...

CITY           SKY/WX    TMP DP  RH WIND       PRES   REMARKS
WINNER         LGT RAIN  66  56  70 NW10      30.06R
VALENTINE      CLOUDY    69  53  56 N12       30.05R
THEDFORD       MOCLDY    64  60  85 E6        30.04S
AINSWORTH      CLOUDY    67  61  81 CALM      30.05R
O`NEILL        CLOUDY    66  63  90 CALM      29.99F
ORD            CLOUDY    66  62  87 N5        29.98R
BROKEN BOW     PTCLDY    67  61  81 NE10      29.99S
VALENTINE NWR    N/A     68  58  69 CALM        N/A
BUTTE            N/A     68  61  77 NW6G14      N/A
HALSEY           N/A     66  58  77 CALM        N/A
EWING            N/A     66  64  94 CALM        N/A
$$

...OBSERVATIONS IN SOUTHWEST NEBRASKA AND FAR NORTHEAST COLORADO...

CITY           SKY/WX    TMP DP  RH WIND       PRES   REMARKS
WRAY           FAIR      66  59  77 CALM      30.08R
HOLYOKE        FAIR      64  59  82 W9        30.10R
IMPERIAL       CLOUDY    70  59  68 CALM      30.05R
OGALLALA       CLOUDY    66  59  77 W3        30.06R
NORTH PLATTE   MOCLDY    70  59  68 E13       29.99R
MCCOOK         CLOUDY    68  62  81 E3        30.00R
LEXINGTON      MOCLDY    69  60  74 NE9       29.99R
STAPLETON        N/A     68  60  76 CALM        N/A
GOTHENBURG       N/A     71  55  58 SE3         N/A
CALLAWAY         N/A     68  58  71 E8          N/A
$$

...OBSERVATIONS IN CENTRAL LINCOLN COUNTY AREA...

CITY           SKY/WX    TMP DP  RH WIND       PRES   REMARKS
N.P. AIRPORT   MOCLDY    70  59  68 E13       29.99R
N.P. DOWNTOWN    N/A     71  59  66 E7G14       N/A
N.P. SOUTHEAST   N/A     70  59  67 CALM        N/A
N.P. HILLCREST   N/A     71  60  69 E9G17       N/A
$$

...SOME OBSERVATIONS FROM AROUND THE REGION...

CITY           SKY/WX    TMP DP  RH WIND       PRES   REMARKS
DENVER         CLOUDY    66  52  60 W8        30.18R
LARAMIE        CLOUDY    56  43  61 CALM      30.27R
CHEYENNE       CLOUDY    67  46  47 SE13      30.17F
SCOTTSBLUFF    PTCLDY    62  56  80 CALM      30.10R
RAPID CITY     CLOUDY    61  53  75 NE10      30.12R
BISMARCK       CLEAR     61  56  83 NW7       30.00R
PIERRE         CLOUDY    67  56  67 W5        30.05R
SIOUX FALLS    MOCLDY    69  65  86 NW7       29.93R
OMAHA          PTCLDY    77  74  90 N7        29.88R
GRAND ISLAND   PTCLDY    68  65  90 N7        29.97R
KANSAS CITY    MOCLDY    79  71  76 S13       29.89R
WICHITA        CLOUDY    77  68  73 S7        29.93R
OKLAHOMA CITY  PTCLDY    73  71  93 S7        29.95R
DALLAS         PTCLDY    81  71  71 S6        29.93R
AMARILLO       PTCLDY    71  58  63 S10       30.05S
DODGE CITY     CLOUDY    75  66  73 S5        29.95R
HAYS           CLOUDY    81  59  47 CALM      29.91S
GOODLAND       CLOUDY    69  63  81 NE12      30.04R
$$




USA.gov is the U.S. government's official web portal to all federal, state and local government web resources and services.